User: anonymous   Login
Location: Sobotiste
(48.7170°N, 17.4000°E)
Time: 12:27:07
(UTC+01:00)
Language:

Envisat - Orbit

View from above orbital plane
View from above orbital plane
View from above satellite
View from above satellite

Ground track
Ground track

The orbit data is extracted from the following two-line orbital elements,

1 27386U 02009A   18318.12337130 -.00000006  00000-0  11533-4 0  9992
2 27386  98.1703 345.0072 0001280  97.6889 328.5794 14.37934244875071
Epoch (UTC): 14 November 2018 02:57:39
Eccentricity: 0.0001280
inclination: 98.1703°
perigee height: 764 km
apogee height: 766 km
right ascension of ascending node: 345.0072°
argument of perigee: 97.6889°
revolutions per day: 14.37934244
mean anomaly at epoch: 328.5794°
orbit number at epoch: 87507

The dashed part of the orbit path shows where the satellite is in the earth's shadow,  

DLR